THORAD DELTA 1 DEB, 8395

Orbit data source: Space-Track

THORAD DELTA 1 DEB, 8395 is space debris in SSO originally from a launch on Fri, 15 Nov 1974 UTC launched from the Air Force Western Test Range (AFWTR). Debris objects in space refer to the collection of defunct objects orbiting the Earth. Examples of debris include non-operational satellites, rocket bodies, and fragments generated from explosions, collisions, or faulty payload assembly.

Loading next visibility...
Identifier
8395, 1974-089BX
Orbit
SSO
Country
Flag of USUS
Related business
Manufacturer
Unknown
Mission
Spacecraft
Bus & Motor
Unknown
Mass
Unknown
Launch date (UTC)
1974-11-15 (51 years ago)
Launch vehicle
Unknown
Launch site
Air Force Western Test Range (AFWTR)
Object type
Payload
Rocket body
Debris
Shape & HBR
Unknown shape, 0.1 m
Radar Cross Section
Small (<0.1 m²)

Expand to show TLE details & history
Last TLE update: 3 days ago

TLE from 3 days ago
0 THORAD DELTA 1 DEB
1 08395U 74089BX  25286.75155264  .00001732  00000-0  85316-2 0  9999
2 08395 100.8670 265.9790 0104031 336.3375 206.0671 12.71796940532509
Epoch: 2025-10-13T18:02Z
TLE epoch observation values (Epoch: 2025-10-13T18:02:14.148Z)
Latitude
-1.96999°
Longitude
152.49374°
Altitude
1,450.163 km
Speed
7.103 km/s
True Right ascension
05h 42m 24s
True Declination
-1° 57' 33"
Sunlit
Object was in daylight at epoch
Visualization orbit readout
Latitude
Unknown
Longitude
Unknown
Altitude
Unknown
Speed
Unknown
Apparent Right ascension
Unknown
Apparent Declination
Unknown
Sunlit
N/A
Visualization observer readout
Local Sidereal Time
03:39:31
Azimuth
Unknown
Elevation
Unknown
Doppler factor
Unknown
Orbital elements
Apogee altitude
1,452.723 km
Perigee altitude
1,291.47 km
Semi-major axis
7,750.233 km
Eccentricity
0.0104
Inclination
100.867°
RAAN
265.979°
Arg. of periapsis
336.3375°
True anomaly
205.54932°
Mean anomaly
206.0671°
Eccentric anomaly
205.80761°
Mean motion
3.18105 °/min
Orbital period
113.17 mins
BSTAR
0.0085316
Loading maneuver chart data...
Computing Atmospheric mass density...

Documentation

Showing up to 5 results
|